GLO9821 SBBE-SBGL

Flight info

Callsign GLO9821
Flight time 3h 6m
Altitude 39000
Route ILSAT UZ3 NECTO DCT NITGI DCT MALMO DCT MAVGU/N0423F290
Aircraft B38M/M-SDFGHIJ4J5KLORWXY/LB1

Departure

Time 2026-04-27 18:39
Airport Val de Cans/Júlio Cezar Ribeiro International Airport (SBBE)

Arrival

Time 2026-04-27 21:45
Airport Rio Galeão – Tom Jobim International Airport (SBGL)
Time Latitude Longitude Altitude Speed Heading
2026-04-27 18:28 -1.38721 -48.47915 46 ft 0 kts 179°
2026-04-27 18:30 -1.38716 -48.47915 46 ft 2 kts 178°
2026-04-27 18:30 -1.38699 -48.47916 43 ft 2 kts 179°
2026-04-27 18:30 -1.38682 -48.47914 42 ft 3 kts 212°
2026-04-27 18:30 -1.38671 -48.47902 40 ft 3 kts 257°
2026-04-27 18:31 -1.38670 -48.47885 43 ft 1 kts 269°
2026-04-27 18:31 -1.38670 -48.47879 42 ft 0 kts 269°
2026-04-27 18:35 -1.38670 -48.47880 43 ft 1 kts 269°
2026-04-27 18:36 -1.38670 -48.47930 43 ft 11 kts 269°
2026-04-27 18:36 -1.38672 -48.47997 46 ft 11 kts 268°
2026-04-27 18:36 -1.38675 -48.48075 46 ft 12 kts 268°
2026-04-27 18:36 -1.38675 -48.48165 47 ft 13 kts 267°
2026-04-27 18:37 -1.38715 -48.48262 46 ft 13 kts 225°
2026-04-27 18:37 -1.38790 -48.48338 46 ft 10 kts 226°
2026-04-27 18:37 -1.38817 -48.48431 46 ft 3 kts 274°
2026-04-27 18:37 -1.38808 -48.48479 46 ft 3 kts 302°
2026-04-27 18:38 -1.38791 -48.48483 46 ft 4 kts
2026-04-27 18:38 -1.38769 -48.48466 45 ft 5 kts 45°
2026-04-27 18:38 -1.38659 -48.48356 44 ft 62 kts 45°
2026-04-27 18:38 -1.38135 -48.47825 45 ft 150 kts 45°
2026-04-27 18:39 -1.37278 -48.46943 481 ft 189 kts 45°
2026-04-27 18:39 -1.36371 -48.45996 1811 ft 185 kts 47°
2026-04-27 18:39 -1.35791 -48.44746 2485 ft 218 kts 86°
2026-04-27 18:39 -1.36265 -48.43241 3196 ft 240 kts 131°
2026-04-27 18:40 -1.37690 -48.42451 4407 ft 244 kts 169°
2026-04-27 18:40 -1.39405 -48.42709 5227 ft 263 kts 208°
2026-04-27 18:40 -1.40909 -48.43838 6127 ft 278 kts 216°
2026-04-27 18:40 -1.42671 -48.44619 7152 ft 279 kts 189°
2026-04-27 18:41 -1.44615 -48.44567 8167 ft 284 kts 166°
2026-04-27 18:41 -1.46564 -48.44149 9186 ft 289 kts 167°
2026-04-27 18:41 -1.48546 -48.43736 10182 ft 294 kts 167°
2026-04-27 18:41 -1.50603 -48.43297 10854 ft 311 kts 167°
2026-04-27 18:42 -1.52763 -48.42831 11573 ft 323 kts 166°
2026-04-27 18:42 -1.54225 -48.42513 12159 ft 325 kts 166°
2026-04-27 18:42 -1.57198 -48.41865 13373 ft 331 kts 166°
2026-04-27 18:42 -1.59461 -48.41370 14174 ft 335 kts 166°
2026-04-27 18:43 -1.61750 -48.40871 14950 ft 338 kts 166°
2026-04-27 18:43 -1.64063 -48.40365 15699 ft 342 kts 166°
2026-04-27 18:43 -1.66404 -48.39854 16445 ft 346 kts 166°
2026-04-27 18:43 -1.68765 -48.39338 17169 ft 349 kts 166°
2026-04-27 18:44 -1.71153 -48.38816 17876 ft 353 kts 166°
2026-04-27 18:44 -1.73566 -48.38289 18522 ft 357 kts 166°
2026-04-27 18:44 -1.76003 -48.37756 19111 ft 360 kts 166°
2026-04-27 18:44 -1.78461 -48.37219 19686 ft 363 kts 166°
2026-04-27 18:45 -1.80942 -48.36677 20257 ft 367 kts 166°
2026-04-27 18:45 -1.83447 -48.36129 20834 ft 370 kts 166°
2026-04-27 18:45 -1.85971 -48.35577 21387 ft 373 kts 166°
2026-04-27 18:45 -1.88520 -48.35020 21943 ft 377 kts 166°
2026-04-27 18:46 -1.91092 -48.34458 22491 ft 380 kts 166°
2026-04-27 18:46 -1.93687 -48.33891 23027 ft 383 kts 166°
2026-04-27 18:46 -1.96304 -48.33319 23549 ft 387 kts 166°
2026-04-27 18:46 -1.98944 -48.32742 23971 ft 390 kts 166°
2026-04-27 18:47 -2.01601 -48.32161 24429 ft 392 kts 166°
2026-04-27 18:47 -2.04265 -48.31535 24869 ft 394 kts 163°
2026-04-27 18:47 -2.06936 -48.30865 25316 ft 397 kts 164°
2026-04-27 18:47 -2.09619 -48.30198 25754 ft 400 kts 164°
2026-04-27 18:48 -2.12331 -48.29526 26190 ft 402 kts 164°
2026-04-27 18:48 -2.15057 -48.28851 26621 ft 405 kts 164°
2026-04-27 18:48 -2.17801 -48.28172 27038 ft 408 kts 164°
2026-04-27 18:48 -2.20562 -48.27489 27446 ft 411 kts 164°
2026-04-27 18:49 -2.23345 -48.26800 27854 ft 413 kts 164°
2026-04-27 18:49 -2.26142 -48.26108 28264 ft 416 kts 164°
2026-04-27 18:49 -2.28958 -48.25411 28657 ft 418 kts 164°
2026-04-27 18:49 -2.31795 -48.24709 29052 ft 421 kts 164°
2026-04-27 18:50 -2.34648 -48.24003 29436 ft 424 kts 164°
2026-04-27 18:50 -2.36545 -48.23533 29682 ft 426 kts 164°
2026-04-27 18:50 -2.39432 -48.22819 30042 ft 428 kts 164°
2026-04-27 18:50 -2.42332 -48.22100 30356 ft 431 kts 164°
2026-04-27 18:51 -2.45251 -48.21378 30684 ft 433 kts 164°
2026-04-27 18:51 -2.48180 -48.20653 31003 ft 435 kts 164°
2026-04-27 18:51 -2.51127 -48.19923 31316 ft 437 kts 164°
2026-04-27 18:51 -2.54094 -48.19188 31640 ft 439 kts 164°
2026-04-27 18:52 -2.57070 -48.18452 31950 ft 441 kts 163°
2026-04-27 18:52 -2.60060 -48.17711 32258 ft 444 kts 163°
2026-04-27 18:52 -2.63061 -48.16968 32561 ft 446 kts 163°
2026-04-27 18:53 -2.69112 -48.15475 33165 ft 450 kts 163°
2026-04-27 18:53 -2.72158 -48.14729 33465 ft 452 kts 163°
2026-04-27 18:53 -2.75216 -48.13980 33758 ft 454 kts 163°
2026-04-27 18:53 -2.78290 -48.13227 34024 ft 456 kts 163°
2026-04-27 18:54 -2.81376 -48.12472 34272 ft 458 kts 163°
2026-04-27 18:54 -2.84481 -48.11711 34513 ft 459 kts 163°
2026-04-27 18:54 -2.87586 -48.10950 34818 ft 459 kts 163°
2026-04-27 18:54 -2.90686 -48.10191 35136 ft 459 kts 163°
2026-04-27 18:55 -2.93786 -48.09431 35451 ft 459 kts 163°
2026-04-27 18:55 -2.96888 -48.08671 35765 ft 458 kts 163°
2026-04-27 18:55 -2.99983 -48.07913 36072 ft 458 kts 163°
2026-04-27 18:55 -3.03076 -48.07155 36382 ft 458 kts 163°
2026-04-27 18:56 -3.06166 -48.06397 36677 ft 457 kts 163°
2026-04-27 18:56 -3.09258 -48.05640 36976 ft 457 kts 163°
2026-04-27 18:56 -3.12348 -48.04882 37269 ft 456 kts 163°
2026-04-27 18:56 -3.15432 -48.04126 37535 ft 456 kts 163°
2026-04-27 18:57 -3.18515 -48.03370 37799 ft 456 kts 163°
2026-04-27 18:57 -3.21599 -48.02614 37929 ft 457 kts 164°
2026-04-27 18:57 -3.24649 -48.01866 37904 ft 455 kts 164°
2026-04-27 18:58 -3.30786 -48.00361 37908 ft 454 kts 164°
2026-04-27 18:58 -3.36930 -47.98855 37904 ft 455 kts 164°
2026-04-27 18:59 -3.43078 -47.97347 37900 ft 455 kts 164°
2026-04-27 18:59 -3.49239 -47.95835 37899 ft 456 kts 164°
2026-04-27 19:00 -3.55388 -47.94274 37908 ft 456 kts 164°
2026-04-27 19:00 -3.61534 -47.92712 37904 ft 456 kts 164°
2026-04-27 19:01 -3.67681 -47.91151 37902 ft 456 kts 164°
2026-04-27 19:01 -3.73831 -47.89588 37897 ft 456 kts 164°
2026-04-27 19:02 -3.79988 -47.88024 37905 ft 456 kts 164°
2026-04-27 19:02 -3.86134 -47.86462 37913 ft 456 kts 164°
2026-04-27 19:03 -3.92290 -47.84897 37909 ft 456 kts 164°
2026-04-27 19:03 -3.98449 -47.83332 37909 ft 457 kts 164°
2026-04-27 19:04 -4.04570 -47.81775 37913 ft 457 kts 164°
2026-04-27 19:04 -4.10729 -47.80209 37916 ft 457 kts 164°
2026-04-27 19:05 -4.16901 -47.78639 37910 ft 458 kts 164°
2026-04-27 19:05 -4.23073 -47.77069 37907 ft 458 kts 164°
2026-04-27 19:06 -4.29258 -47.75496 37913 ft 459 kts 164°
2026-04-27 19:06 -4.35450 -47.73920 37914 ft 459 kts 164°
2026-04-27 19:07 -4.41653 -47.72343 37920 ft 460 kts 164°
2026-04-27 19:07 -4.47866 -47.70813 37915 ft 460 kts 165°
2026-04-27 19:08 -4.54083 -47.69278 37919 ft 460 kts 165°
2026-04-27 19:08 -4.60300 -47.67743 37924 ft 460 kts 165°
2026-04-27 19:09 -4.66520 -47.66207 37922 ft 460 kts 165°
2026-04-27 19:09 -4.72738 -47.64672 37914 ft 460 kts 165°
2026-04-27 19:10 -4.78958 -47.63135 37922 ft 460 kts 165°
2026-04-27 19:10 -4.85181 -47.61597 37920 ft 460 kts 165°
2026-04-27 19:11 -4.91401 -47.60060 37920 ft 461 kts 165°
2026-04-27 19:11 -4.97629 -47.58520 37921 ft 461 kts 164°
2026-04-27 19:12 -5.03858 -47.56981 37914 ft 461 kts 165°
2026-04-27 19:12 -5.10097 -47.55438 37912 ft 462 kts 165°
2026-04-27 19:13 -5.16343 -47.53893 37914 ft 462 kts 165°
2026-04-27 19:13 -5.22598 -47.52346 37913 ft 463 kts 165°
2026-04-27 19:14 -5.28814 -47.50808 37900 ft 464 kts 165°
2026-04-27 19:14 -5.35081 -47.49257 37892 ft 464 kts 165°
2026-04-27 19:15 -5.41357 -47.47704 37893 ft 464 kts 165°
2026-04-27 19:15 -5.47635 -47.46149 37889 ft 465 kts 165°
2026-04-27 19:16 -5.53934 -47.44633 37880 ft 465 kts 166°
2026-04-27 19:16 -5.60241 -47.43176 37884 ft 465 kts 166°
2026-04-27 19:17 -5.66550 -47.41712 37893 ft 465 kts 166°
2026-04-27 19:17 -5.72857 -47.40247 37892 ft 465 kts 166°
2026-04-27 19:18 -5.79160 -47.38786 37899 ft 465 kts 166°
2026-04-27 19:18 -5.85475 -47.37323 37900 ft 465 kts 166°
2026-04-27 19:19 -5.91778 -47.35862 37899 ft 465 kts 166°
2026-04-27 19:19 -5.98079 -47.34401 37906 ft 465 kts 166°
2026-04-27 19:20 -6.04378 -47.32941 37908 ft 464 kts 166°
2026-04-27 19:20 -6.10673 -47.31481 37900 ft 464 kts 166°
2026-04-27 19:21 -6.16968 -47.30020 37906 ft 464 kts 166°
2026-04-27 19:21 -6.23269 -47.28558 37901 ft 464 kts 166°
2026-04-27 19:22 -6.29561 -47.27098 37896 ft 464 kts 166°
2026-04-27 19:22 -6.35850 -47.25637 37906 ft 464 kts 166°
2026-04-27 19:23 -6.42141 -47.24177 37897 ft 464 kts 166°
2026-04-27 19:23 -6.48421 -47.22718 37896 ft 463 kts 166°
2026-04-27 19:24 -6.54701 -47.21259 37903 ft 463 kts 166°
2026-04-27 19:24 -6.60981 -47.19799 37896 ft 463 kts 166°
2026-04-27 19:25 -6.67254 -47.18341 37905 ft 462 kts 166°
2026-04-27 19:25 -6.73522 -47.16884 37900 ft 462 kts 166°
2026-04-27 19:26 -6.79784 -47.15427 37902 ft 462 kts 166°
2026-04-27 19:26 -6.86006 -47.13979 37910 ft 461 kts 166°
2026-04-27 19:27 -6.92265 -47.12522 37901 ft 461 kts 166°
2026-04-27 19:27 -6.98519 -47.11066 37903 ft 461 kts 166°
2026-04-27 19:28 -7.04769 -47.09611 37903 ft 460 kts 166°
2026-04-27 19:28 -7.11005 -47.08158 37905 ft 460 kts 166°
2026-04-27 19:29 -7.17240 -47.06705 37899 ft 460 kts 166°
2026-04-27 19:29 -7.23476 -47.05252 37899 ft 460 kts 166°
2026-04-27 19:30 -7.29705 -47.03800 37896 ft 459 kts 166°
2026-04-27 19:30 -7.35932 -47.02348 37898 ft 459 kts 166°
2026-04-27 19:31 -7.42119 -47.00904 37894 ft 459 kts 166°
2026-04-27 19:31 -7.48342 -46.99453 37892 ft 459 kts 166°
2026-04-27 19:32 -7.54557 -46.98002 37897 ft 459 kts 166°
2026-04-27 19:32 -7.60781 -46.96549 37890 ft 459 kts 166°
2026-04-27 19:33 -7.65951 -46.95341 37887 ft 459 kts 166°
2026-04-27 19:33 -7.73221 -46.93643 37893 ft 459 kts 166°
2026-04-27 19:34 -7.78390 -46.92435 37894 ft 458 kts 166°
2026-04-27 19:34 -7.84607 -46.90982 37894 ft 458 kts 166°
2026-04-27 19:35 -7.90823 -46.89528 37897 ft 458 kts 166°
2026-04-27 19:35 -7.97038 -46.88075 37895 ft 458 kts 166°
2026-04-27 19:36 -8.03250 -46.86622 37892 ft 458 kts 166°
2026-04-27 19:36 -8.09462 -46.85168 37898 ft 458 kts 166°
2026-04-27 19:37 -8.15670 -46.83714 37898 ft 458 kts 166°
2026-04-27 19:37 -8.21883 -46.82260 37894 ft 458 kts 166°
2026-04-27 19:38 -8.28057 -46.80813 37898 ft 458 kts 166°
2026-04-27 19:38 -8.34267 -46.79358 37896 ft 459 kts 166°
2026-04-27 19:39 -8.40484 -46.77901 37900 ft 459 kts 166°
2026-04-27 19:39 -8.46704 -46.76442 37897 ft 459 kts 166°
2026-04-27 19:40 -8.52920 -46.74984 37909 ft 459 kts 166°
2026-04-27 19:40 -8.59142 -46.73524 37902 ft 459 kts 165°
2026-04-27 19:41 -8.65321 -46.72074 37902 ft 459 kts 166°
2026-04-27 19:41 -8.71534 -46.70615 37906 ft 458 kts 166°
2026-04-27 19:42 -8.77747 -46.69156 37907 ft 458 kts 166°
2026-04-27 19:42 -8.83960 -46.67696 37909 ft 458 kts 166°
2026-04-27 19:43 -8.90168 -46.66235 37914 ft 458 kts 166°
2026-04-27 19:43 -8.96372 -46.64774 37913 ft 458 kts 166°
2026-04-27 19:44 -9.02577 -46.63313 37911 ft 458 kts 166°
2026-04-27 19:44 -9.08786 -46.61850 37913 ft 458 kts 166°
2026-04-27 19:45 -9.14988 -46.60388 37913 ft 457 kts 165°
2026-04-27 19:45 -9.21190 -46.58926 37910 ft 457 kts 166°
2026-04-27 19:46 -9.27385 -46.57465 37913 ft 457 kts 165°
2026-04-27 19:46 -9.33548 -46.56011 37912 ft 457 kts 165°
2026-04-27 19:47 -9.39744 -46.54548 37908 ft 457 kts 165°
2026-04-27 19:47 -9.45949 -46.53083 37913 ft 457 kts 165°
2026-04-27 19:48 -9.52145 -46.51620 37914 ft 457 kts 165°
2026-04-27 19:48 -9.58340 -46.50156 37911 ft 457 kts 165°
2026-04-27 19:49 -9.64500 -46.48700 37912 ft 457 kts 165°
2026-04-27 19:49 -9.70692 -46.47236 37913 ft 457 kts 165°
2026-04-27 19:50 -9.76883 -46.45771 37916 ft 457 kts 165°
2026-04-27 19:50 -9.83071 -46.44307 37918 ft 456 kts 165°
2026-04-27 19:51 -9.89254 -46.42843 37919 ft 456 kts 165°
2026-04-27 19:51 -9.95438 -46.41379 37917 ft 456 kts 165°
2026-04-27 19:52 -10.01620 -46.39914 37918 ft 456 kts 165°
2026-04-27 19:52 -10.07796 -46.38450 37922 ft 456 kts 166°
2026-04-27 19:53 -10.17046 -46.36257 37920 ft 455 kts 166°
2026-04-27 19:53 -10.23227 -46.34794 37920 ft 455 kts 166°
2026-04-27 19:54 -10.29393 -46.33333 37920 ft 455 kts 166°
2026-04-27 19:54 -10.35562 -46.31871 37922 ft 455 kts 166°
2026-04-27 19:55 -10.41729 -46.30408 37921 ft 455 kts 166°
2026-04-27 19:55 -10.47899 -46.28945 37924 ft 455 kts 166°
2026-04-27 19:56 -10.54066 -46.27481 37929 ft 455 kts 166°
2026-04-27 19:56 -10.60233 -46.26017 37928 ft 455 kts 166°
2026-04-27 19:57 -10.66398 -46.24553 37929 ft 455 kts 166°
2026-04-27 19:57 -10.72566 -46.23088 37933 ft 455 kts 166°
2026-04-27 19:58 -10.78741 -46.21620 37940 ft 455 kts 166°
2026-04-27 19:58 -10.84906 -46.20154 37944 ft 455 kts 166°
2026-04-27 19:59 -10.91074 -46.18686 37938 ft 455 kts 166°
2026-04-27 19:59 -10.97248 -46.17217 37941 ft 455 kts 166°
2026-04-27 20:00 -11.03418 -46.15748 37944 ft 455 kts 166°
2026-04-27 20:00 -11.09587 -46.14279 37946 ft 455 kts 166°
2026-04-27 20:01 -11.15755 -46.12809 37949 ft 455 kts 166°
2026-04-27 20:01 -11.21922 -46.11339 37951 ft 455 kts 166°
2026-04-27 20:02 -11.28090 -46.09868 37953 ft 455 kts 166°
2026-04-27 20:02 -11.34221 -46.08405 37958 ft 455 kts 166°
2026-04-27 20:03 -11.40392 -46.06931 37949 ft 455 kts 166°
2026-04-27 20:03 -11.46560 -46.05458 37957 ft 455 kts 166°
2026-04-27 20:04 -11.52730 -46.03984 37966 ft 455 kts 166°
2026-04-27 20:04 -11.57906 -46.02747 37960 ft 455 kts 166°
2026-04-27 20:05 -11.65085 -46.01038 37964 ft 456 kts 166°
2026-04-27 20:05 -11.71256 -45.99567 37962 ft 456 kts 166°
2026-04-27 20:06 -11.77434 -45.98095 37967 ft 456 kts 166°
2026-04-27 20:06 -11.83616 -45.96621 37960 ft 456 kts 166°
2026-04-27 20:07 -11.89794 -45.95144 37965 ft 456 kts 166°
2026-04-27 20:07 -11.95979 -45.93662 37962 ft 457 kts 166°
2026-04-27 20:08 -12.02167 -45.92178 37964 ft 457 kts 166°
2026-04-27 20:08 -12.08362 -45.90691 37969 ft 457 kts 166°
2026-04-27 20:09 -12.14557 -45.89204 37970 ft 457 kts 166°
2026-04-27 20:09 -12.20752 -45.87716 37968 ft 457 kts 166°
2026-04-27 20:10 -12.26910 -45.86237 37964 ft 458 kts 166°
2026-04-27 20:10 -12.33108 -45.84747 37970 ft 458 kts 166°
2026-04-27 20:11 -12.39309 -45.83255 37970 ft 458 kts 166°
2026-04-27 20:11 -12.45511 -45.81763 37969 ft 458 kts 166°
2026-04-27 20:12 -12.50703 -45.80513 37965 ft 458 kts 166°
2026-04-27 20:12 -12.57908 -45.78777 37972 ft 458 kts 166°
2026-04-27 20:13 -12.64109 -45.77283 37971 ft 458 kts 166°
2026-04-27 20:13 -12.70317 -45.75786 37973 ft 458 kts 166°
2026-04-27 20:14 -12.76523 -45.74289 37978 ft 459 kts 166°
2026-04-27 20:14 -12.82746 -45.72787 37973 ft 459 kts 166°
2026-04-27 20:15 -12.88959 -45.71287 37974 ft 459 kts 166°
2026-04-27 20:15 -12.95175 -45.69786 37973 ft 459 kts 166°
2026-04-27 20:16 -13.01392 -45.68283 37980 ft 459 kts 166°
2026-04-27 20:16 -13.07617 -45.66777 37976 ft 459 kts 166°
2026-04-27 20:17 -13.13839 -45.65273 37976 ft 460 kts 167°
2026-04-27 20:17 -13.19011 -45.64022 37971 ft 460 kts 167°
2026-04-27 20:18 -13.25244 -45.62513 37967 ft 460 kts 167°
2026-04-27 20:18 -13.31474 -45.61015 37970 ft 460 kts 169°
2026-04-27 20:19 -13.37814 -45.60187 37964 ft 460 kts 173°
2026-04-27 20:19 -13.44156 -45.59314 37969 ft 460 kts 172°
2026-04-27 20:20 -13.50503 -45.58421 37966 ft 460 kts 172°
2026-04-27 20:20 -13.56845 -45.57526 37966 ft 460 kts 172°
2026-04-27 20:21 -13.63190 -45.56630 37965 ft 460 kts 172°
2026-04-27 20:21 -13.69540 -45.55732 37962 ft 461 kts 172°
2026-04-27 20:22 -13.75896 -45.54834 37965 ft 460 kts 172°
2026-04-27 20:22 -13.82243 -45.53936 37962 ft 461 kts 172°
2026-04-27 20:23 -13.88594 -45.53037 37966 ft 461 kts 172°
2026-04-27 20:23 -13.94952 -45.52137 37966 ft 461 kts 172°
2026-04-27 20:24 -14.01305 -45.51237 37969 ft 461 kts 172°
2026-04-27 20:24 -14.07653 -45.50337 37969 ft 461 kts 172°
2026-04-27 20:25 -14.14003 -45.49436 37965 ft 461 kts 172°
2026-04-27 20:25 -14.20350 -45.48535 37964 ft 460 kts 172°
2026-04-27 20:26 -14.26695 -45.47634 37969 ft 460 kts 172°
2026-04-27 20:26 -14.33042 -45.46732 37971 ft 460 kts 172°
2026-04-27 20:27 -14.39387 -45.45830 37967 ft 460 kts 172°
2026-04-27 20:27 -14.45735 -45.44927 37966 ft 460 kts 172°
2026-04-27 20:28 -14.52080 -45.44024 37966 ft 460 kts 172°
2026-04-27 20:28 -14.57361 -45.43272 37970 ft 460 kts 173°
2026-04-27 20:29 -14.64777 -45.42215 37970 ft 460 kts 173°
2026-04-27 20:29 -14.71122 -45.41311 37969 ft 460 kts 173°
2026-04-27 20:30 -14.77461 -45.40406 37966 ft 460 kts 173°
2026-04-27 20:30 -14.83803 -45.39501 37969 ft 460 kts 173°
2026-04-27 20:31 -14.90147 -45.38595 37964 ft 460 kts 173°
2026-04-27 20:31 -14.96490 -45.37689 37970 ft 460 kts 173°
2026-04-27 20:32 -15.02835 -45.36781 37973 ft 460 kts 173°
2026-04-27 20:32 -15.09184 -45.35872 37976 ft 461 kts 173°
2026-04-27 20:33 -15.15535 -45.34963 37970 ft 461 kts 173°
2026-04-27 20:33 -15.21886 -45.34053 37975 ft 461 kts 173°
2026-04-27 20:34 -15.28240 -45.33142 37971 ft 461 kts 173°
2026-04-27 20:34 -15.34594 -45.32231 37977 ft 461 kts 173°
2026-04-27 20:35 -15.40952 -45.31318 37979 ft 461 kts 173°
2026-04-27 20:35 -15.47271 -45.30411 37976 ft 461 kts 173°
2026-04-27 20:36 -15.53629 -45.29497 37973 ft 461 kts 173°
2026-04-27 20:36 -15.59993 -45.28582 37975 ft 461 kts 173°
2026-04-27 20:37 -15.66353 -45.27667 37971 ft 461 kts 173°
2026-04-27 20:37 -15.72709 -45.26752 37972 ft 461 kts 173°
2026-04-27 20:38 -15.79077 -45.25834 37966 ft 461 kts 173°
2026-04-27 20:38 -15.85436 -45.24918 37961 ft 461 kts 173°
2026-04-27 20:39 -15.91793 -45.24001 37963 ft 461 kts 173°
2026-04-27 20:39 -15.98148 -45.23083 37978 ft 461 kts 173°
2026-04-27 20:40 -16.04502 -45.22166 37966 ft 461 kts 173°
2026-04-27 20:40 -16.10855 -45.21248 37969 ft 461 kts 173°
2026-04-27 20:41 -16.17209 -45.20329 37967 ft 461 kts 173°
2026-04-27 20:41 -16.23557 -45.19410 37964 ft 461 kts 173°
2026-04-27 20:42 -16.29903 -45.18491 37967 ft 460 kts 173°
2026-04-27 20:42 -16.36206 -45.17578 37963 ft 460 kts 173°
2026-04-27 20:43 -16.42553 -45.16657 37967 ft 460 kts 173°
2026-04-27 20:43 -16.48897 -45.15737 37965 ft 460 kts 173°
2026-04-27 20:44 -16.55237 -45.14817 37965 ft 460 kts 173°
2026-04-27 20:44 -16.61583 -45.13895 37969 ft 460 kts 173°
2026-04-27 20:45 -16.67916 -45.12974 37979 ft 460 kts 173°
2026-04-27 20:45 -16.74256 -45.12051 37967 ft 460 kts 173°
2026-04-27 20:46 -16.80589 -45.11130 37969 ft 460 kts 173°
2026-04-27 20:46 -16.86926 -45.10207 37980 ft 459 kts 173°
2026-04-27 20:47 -16.93262 -45.09283 37978 ft 459 kts 173°
2026-04-27 20:47 -16.99592 -45.08360 37982 ft 459 kts 173°
2026-04-27 20:48 -17.04853 -45.07592 37980 ft 459 kts 173°
2026-04-27 20:48 -17.12257 -45.06510 37969 ft 459 kts 173°
2026-04-27 20:49 -17.18589 -45.05585 37984 ft 459 kts 173°
2026-04-27 20:49 -17.24920 -45.04659 37980 ft 459 kts 173°
2026-04-27 20:50 -17.31247 -45.03733 37981 ft 459 kts 173°
2026-04-27 20:50 -17.37571 -45.02807 37989 ft 459 kts 173°
2026-04-27 20:51 -17.43883 -45.01769 37990 ft 459 kts 172°
2026-04-27 20:51 -17.50193 -45.00703 37982 ft 459 kts 172°
2026-04-27 20:52 -17.56514 -44.99638 37982 ft 459 kts 172°
2026-04-27 20:52 -17.62823 -44.98574 37996 ft 459 kts 172°
2026-04-27 20:53 -17.69131 -44.97510 37988 ft 459 kts 172°
2026-04-27 20:53 -17.75401 -44.96451 37988 ft 459 kts 172°
2026-04-27 20:54 -17.84859 -44.94853 37988 ft 459 kts 172°
2026-04-27 20:55 -17.91170 -44.93786 37985 ft 459 kts 172°
2026-04-27 20:55 -17.97475 -44.92719 38003 ft 459 kts 172°
2026-04-27 20:56 -18.03780 -44.91651 38003 ft 459 kts 172°
2026-04-27 20:56 -18.10090 -44.90582 37986 ft 459 kts 172°
2026-04-27 20:57 -18.16398 -44.89512 37997 ft 459 kts 172°
2026-04-27 20:57 -18.22704 -44.88441 37997 ft 459 kts 172°
2026-04-27 20:58 -18.29022 -44.87368 38007 ft 460 kts 172°
2026-04-27 20:58 -18.34313 -44.86469 38000 ft 460 kts 172°
2026-04-27 20:59 -18.40624 -44.85395 37993 ft 459 kts 172°
2026-04-27 20:59 -18.46901 -44.84327 38002 ft 460 kts 172°
2026-04-27 21:00 -18.53256 -44.83244 38006 ft 460 kts 172°
2026-04-27 21:00 -18.59534 -44.82174 37994 ft 460 kts 172°
2026-04-27 21:01 -18.65895 -44.81089 38010 ft 460 kts 172°
2026-04-27 21:01 -18.72178 -44.80016 37997 ft 460 kts 172°
2026-04-27 21:02 -18.78507 -44.78935 38004 ft 461 kts 172°
2026-04-27 21:02 -18.84837 -44.77852 37997 ft 461 kts 172°
2026-04-27 21:03 -18.91178 -44.76767 38007 ft 461 kts 172°
2026-04-27 21:03 -18.97506 -44.75684 38001 ft 461 kts 173°
2026-04-27 21:04 -19.03850 -44.74596 38004 ft 461 kts 173°
2026-04-27 21:04 -19.10192 -44.73509 38002 ft 462 kts 173°
2026-04-27 21:05 -19.16530 -44.72421 38008 ft 462 kts 173°
2026-04-27 21:05 -19.22873 -44.71331 38007 ft 462 kts 173°
2026-04-27 21:06 -19.29220 -44.70240 38008 ft 462 kts 173°
2026-04-27 21:06 -19.35557 -44.69149 38012 ft 462 kts 173°
2026-04-27 21:07 -19.41904 -44.68057 38018 ft 462 kts 173°
2026-04-27 21:07 -19.48256 -44.66962 38012 ft 462 kts 173°
2026-04-27 21:08 -19.54604 -44.65867 38016 ft 462 kts 173°
2026-04-27 21:08 -19.60949 -44.64772 38017 ft 462 kts 173°
2026-04-27 21:09 -19.67295 -44.63676 38010 ft 462 kts 173°
2026-04-27 21:09 -19.73639 -44.62579 38016 ft 462 kts 173°
2026-04-27 21:10 -19.79987 -44.61481 38017 ft 462 kts 173°
2026-04-27 21:10 -19.86335 -44.60382 38025 ft 462 kts 173°
2026-04-27 21:11 -19.92678 -44.59282 38025 ft 462 kts 173°
2026-04-27 21:11 -19.99024 -44.58182 38026 ft 462 kts 173°
2026-04-27 21:12 -20.05372 -44.57080 38029 ft 462 kts 173°
2026-04-27 21:12 -20.11715 -44.55978 38028 ft 462 kts 173°
2026-04-27 21:13 -20.18054 -44.54876 38032 ft 462 kts 173°
2026-04-27 21:13 -20.24403 -44.53771 38035 ft 462 kts 173°
2026-04-27 21:14 -20.30701 -44.52674 38037 ft 462 kts 173°
2026-04-27 21:14 -20.37041 -44.51569 38036 ft 462 kts 173°
2026-04-27 21:15 -20.43378 -44.50463 38039 ft 462 kts 173°
2026-04-27 21:15 -20.49720 -44.49356 38045 ft 461 kts 173°
2026-04-27 21:16 -20.56091 -44.48237 38044 ft 462 kts 172°
2026-04-27 21:16 -20.59178 -44.47255 38034 ft 465 kts 158°
2026-04-27 21:16 -20.62000 -44.45544 38058 ft 469 kts 148°
2026-04-27 21:17 -20.67495 -44.41773 38050 ft 470 kts 150°
2026-04-27 21:17 -20.73034 -44.38062 38051 ft 470 kts 150°
2026-04-27 21:18 -20.78577 -44.34353 38050 ft 470 kts 150°
2026-04-27 21:18 -20.84124 -44.30638 38048 ft 470 kts 150°
2026-04-27 21:18 -20.86875 -44.28792 37689 ft 464 kts 150°
2026-04-27 21:19 -20.89608 -44.26960 36962 ft 465 kts 150°
2026-04-27 21:19 -20.92356 -44.25118 36339 ft 465 kts 149°
2026-04-27 21:19 -20.95089 -44.23284 35863 ft 461 kts 149°
2026-04-27 21:20 -21.00493 -44.19655 34845 ft 457 kts 149°
2026-04-27 21:20 -21.03149 -44.17871 34323 ft 456 kts 149°
2026-04-27 21:20 -21.05871 -44.16041 33753 ft 456 kts 149°
2026-04-27 21:20 -21.08555 -44.14238 33175 ft 454 kts 149°
2026-04-27 21:21 -21.11191 -44.12464 32676 ft 452 kts 149°
2026-04-27 21:21 -21.13847 -44.10677 32187 ft 449 kts 149°
2026-04-27 21:21 -21.16486 -44.08900 31702 ft 447 kts 149°
2026-04-27 21:21 -21.19116 -44.07128 31208 ft 446 kts 149°
2026-04-27 21:22 -21.21736 -44.05363 30727 ft 444 kts 149°
2026-04-27 21:22 -21.24355 -44.03597 30247 ft 443 kts 149°
2026-04-27 21:22 -21.26957 -44.01842 29697 ft 442 kts 149°
2026-04-27 21:22 -21.29553 -44.00092 29188 ft 439 kts 149°
2026-04-27 21:23 -21.32127 -43.98353 28727 ft 436 kts 149°
2026-04-27 21:23 -21.34684 -43.96627 28270 ft 433 kts 149°
2026-04-27 21:23 -21.37225 -43.94910 27823 ft 430 kts 149°
2026-04-27 21:23 -21.39784 -43.93180 27350 ft 428 kts 149°
2026-04-27 21:24 -21.42295 -43.91482 26895 ft 425 kts 149°
2026-04-27 21:24 -21.44758 -43.89816 26451 ft 423 kts 149°
2026-04-27 21:24 -21.47243 -43.88135 26001 ft 421 kts 149°
2026-04-27 21:24 -21.49714 -43.86462 25555 ft 419 kts 149°
2026-04-27 21:25 -21.52173 -43.84797 25105 ft 417 kts 149°
2026-04-27 21:25 -21.54623 -43.83137 24649 ft 416 kts 148°
2026-04-27 21:25 -21.57068 -43.81480 24216 ft 415 kts 148°
2026-04-27 21:25 -21.59499 -43.79832 23770 ft 413 kts 148°
2026-04-27 21:26 -21.61931 -43.78182 23264 ft 412 kts 148°
2026-04-27 21:26 -21.64352 -43.76540 22791 ft 410 kts 148°
2026-04-27 21:26 -21.66752 -43.74910 22352 ft 407 kts 148°
2026-04-27 21:26 -21.69140 -43.73288 21936 ft 404 kts 148°
2026-04-27 21:27 -21.71473 -43.71703 21523 ft 401 kts 148°
2026-04-27 21:27 -21.73826 -43.70103 21101 ft 399 kts 148°
2026-04-27 21:27 -21.76160 -43.68516 20688 ft 396 kts 148°
2026-04-27 21:27 -21.78487 -43.66933 20272 ft 394 kts 148°
2026-04-27 21:28 -21.80793 -43.65364 19864 ft 392 kts 148°
2026-04-27 21:28 -21.83091 -43.63800 19450 ft 389 kts 148°
2026-04-27 21:28 -21.85375 -43.62244 19043 ft 388 kts 148°
2026-04-27 21:28 -21.87652 -43.60693 18636 ft 386 kts 148°
2026-04-27 21:29 -21.89912 -43.59153 18223 ft 384 kts 148°
2026-04-27 21:29 -21.92138 -43.57636 17771 ft 382 kts 148°
2026-04-27 21:29 -21.94378 -43.56107 17354 ft 379 kts 148°
2026-04-27 21:29 -21.96596 -43.54594 16953 ft 375 kts 148°
2026-04-27 21:30 -21.98790 -43.53096 16558 ft 372 kts 148°
2026-04-27 21:30 -22.00971 -43.51607 16164 ft 369 kts 148°
2026-04-27 21:30 -22.03129 -43.50133 15781 ft 366 kts 149°
2026-04-27 21:30 -22.05272 -43.48668 15394 ft 363 kts 149°
2026-04-27 21:31 -22.07400 -43.47213 15008 ft 360 kts 149°
2026-04-27 21:31 -22.09512 -43.45769 14629 ft 358 kts 149°
2026-04-27 21:31 -22.11603 -43.44338 14249 ft 355 kts 149°
2026-04-27 21:31 -22.13684 -43.42915 13870 ft 353 kts 149°
2026-04-27 21:32 -22.15750 -43.41500 13456 ft 351 kts 149°
2026-04-27 21:32 -22.17803 -43.40094 13055 ft 347 kts 149°
2026-04-27 21:32 -22.19807 -43.38722 12689 ft 344 kts 149°
2026-04-27 21:32 -22.21816 -43.37344 12329 ft 340 kts 149°
2026-04-27 21:33 -22.23802 -43.35983 11968 ft 337 kts 149°
2026-04-27 21:33 -22.25772 -43.34631 11600 ft 334 kts 149°
2026-04-27 21:33 -22.27727 -43.33291 11253 ft 331 kts 149°
2026-04-27 21:33 -22.29661 -43.31963 10904 ft 329 kts 149°
2026-04-27 21:34 -22.31583 -43.30644 10551 ft 326 kts 149°
2026-04-27 21:34 -22.33493 -43.29332 10194 ft 324 kts 149°
2026-04-27 21:34 -22.35387 -43.28031 9836 ft 321 kts 149°
2026-04-27 21:34 -22.37266 -43.26740 9474 ft 319 kts 149°
2026-04-27 21:35 -22.39129 -43.25459 9097 ft 316 kts 149°
2026-04-27 21:35 -22.40973 -43.24191 8780 ft 313 kts 148°
2026-04-27 21:35 -22.42186 -43.23357 8553 ft 312 kts 148°
2026-04-27 21:35 -22.43427 -43.22503 8332 ft 310 kts 148°
2026-04-27 21:36 -22.45244 -43.21252 8005 ft 310 kts 148°
2026-04-27 21:36 -22.47060 -43.20003 7635 ft 309 kts 148°
2026-04-27 21:36 -22.48867 -43.18760 7296 ft 306 kts 148°
2026-04-27 21:36 -22.50658 -43.17526 6980 ft 304 kts 148°
2026-04-27 21:37 -22.52440 -43.16299 6663 ft 302 kts 148°
2026-04-27 21:37 -22.54214 -43.15077 6339 ft 302 kts 148°
2026-04-27 21:37 -22.55983 -43.13857 5975 ft 302 kts 148°
2026-04-27 21:37 -22.57739 -43.12646 5774 ft 295 kts 147°
2026-04-27 21:38 -22.59441 -43.11472 5625 ft 285 kts 147°
2026-04-27 21:38 -22.61090 -43.10334 5476 ft 277 kts 147°
2026-04-27 21:38 -22.62692 -43.09229 5338 ft 269 kts 147°
2026-04-27 21:38 -22.64248 -43.08154 5188 ft 262 kts 147°
2026-04-27 21:39 -22.65769 -43.07134 5039 ft 254 kts 153°
2026-04-27 21:39 -22.67463 -43.06513 4510 ft 263 kts 165°
2026-04-27 21:39 -22.69283 -43.05987 3828 ft 278 kts 165°
2026-04-27 21:39 -22.71190 -43.05427 3160 ft 290 kts 165°
2026-04-27 21:40 -22.73160 -43.05276 2835 ft 276 kts 189°
2026-04-27 21:40 -22.74316 -43.05653 2814 ft 249 kts 206°
2026-04-27 21:40 -22.75794 -43.07190 2702 ft 203 kts 245°
2026-04-27 21:40 -22.76034 -43.08587 2476 ft 177 kts 269°
2026-04-27 21:41 -22.76084 -43.09443 2307 ft 170 kts 261°
2026-04-27 21:41 -22.76339 -43.10661 2055 ft 154 kts 252°
2026-04-27 21:41 -22.76629 -43.11714 1896 ft 147 kts 251°
2026-04-27 21:41 -22.76903 -43.12765 1673 ft 144 kts 252°
2026-04-27 21:42 -22.77173 -43.13811 1462 ft 142 kts 252°
2026-04-27 21:42 -22.77439 -43.14846 1279 ft 143 kts 252°
2026-04-27 21:42 -22.77704 -43.15879 1105 ft 143 kts 252°
2026-04-27 21:42 -22.77971 -43.16917 922 ft 142 kts 251°
2026-04-27 21:43 -22.78237 -43.17948 736 ft 142 kts 251°
2026-04-27 21:43 -22.78498 -43.18976 593 ft 141 kts 252°
2026-04-27 21:43 -22.78760 -43.19993 393 ft 141 kts 252°
2026-04-27 21:43 -22.79014 -43.21003 248 ft 138 kts 253°
2026-04-27 21:44 -22.79271 -43.21981 66 ft 132 kts 253°
2026-04-27 21:44 -22.79502 -43.22866 29 ft 103 kts 255°
2026-04-27 21:44 -22.79656 -43.23470 29 ft 73 kts 255°
2026-04-27 21:44 -22.79787 -43.23976 29 ft 67 kts 254°
2026-04-27 21:45 -22.79904 -43.24439 29 ft 61 kts 255°
2026-04-27 21:45 -22.80014 -43.24864 29 ft 45 kts 254°
2026-04-27 21:45 -22.80069 -43.25080 29 ft 28 kts 254°
2026-04-27 21:45 -22.80125 -43.25287 29 ft 27 kts 254°
2026-04-27 21:46 -22.80160 -43.25426 29 ft 14 kts 249°
2026-04-27 21:46 -22.80234 -43.25497 29 ft 15 kts 213°
2026-04-27 21:46 -22.80340 -43.25492 29 ft 18 kts 146°
2026-04-27 21:46 -22.80410 -43.25440 29 ft 13 kts 146°
2026-04-27 21:47 -22.80496 -43.25465 29 ft 15 kts 223°
2026-04-27 21:47 -22.80587 -43.25546 29 ft 19 kts 217°
2026-04-27 21:47 -22.80681 -43.25618 29 ft 2 kts 213°
2026-04-27 21:47 -22.80704 -43.25635 29 ft 9 kts 215°
2026-04-27 21:48 -22.80787 -43.25685 29 ft 17 kts 182°
2026-04-27 21:48 -22.80876 -43.25590 29 ft 20 kts 119°
2026-04-27 21:48 -22.80937 -43.25472 29 ft 10 kts 151°
2026-04-27 21:48 -22.81004 -43.25473 29 ft 11 kts 185°
2026-04-27 21:49 -22.81092 -43.25475 29 ft 13 kts 175°
2026-04-27 21:49 -22.81148 -43.25462 29 ft 4 kts 171°
2026-04-27 21:49 -22.81160 -43.25469 29 ft 2 kts 230°
2026-04-27 21:49 -22.81171 -43.25492 29 ft 3 kts 252°
2026-04-27 21:50 -22.81174 -43.25503 29 ft 0 kts 252°